,,,PA_Meas_PMT16A,,PR_Meas_QMR101_102,,RH_Meas_QMH101,,SR_Meas_QMS101,,TA_Meas_QMH101,,GenWind,,GenWind,
date,time,status,PA,status,PR,status,RH,status,SR,status,TA,status,DirAvg,status,SpdAvg,
2015-01-10, 00:00:04,VALID,1010.34,VALID,0,INVALID,139.239,VALID,0,VALID,24.0448,VALID,323,VALID,0,
2015-01-10, 00:01:04,VALID,1010.33,VALID,0,INVALID,139.17,VALID,0,VALID,24.0253,VALID,323,VALID,0,
2015-01-10, 00:02:04,VALID,1010.34,VALID,0,INVALID,139.094,VALID,0,VALID,24.0448,VALID,323,VALID,0,
2015-01-10, 00:03:04,VALID,1010.31,VALID,0,INVALID,139.04,VALID,0,VALID,24.0448,VALID,323,VALID,0,
2015-01-10, 00:04:04,VALID,1010.33,VALID,0,INVALID,138.941,VALID,0,VALID,24.0448,VALID,323,VALID,0,
2015-01-10, 00:05:04,VALID,1010.35,VALID,0,INVALID,138.911,VALID,0,VALID,24.0643,VALID,323,VALID,0,
2015-01-10, 00:06:04,VALID,1010.3,VALID,0,INVALID,138.834,VALID,0,VALID,24.0643,VALID,323,VALID,0,
2015-01-10, 00:07:04,VALID,1010.29,VALID,0,INVALID,138.758,VALID,0,VALID,24.0643,VALID,323,VALID,0,
2015-01-10, 00:08:04,VALID,1010.29,VALID,0,INVALID,138.697,VALID,0,VALID,24.0643,VALID,323,VALID,0,
2015-01-10, 00:09:04,VALID,1010.28,VALID,0,INVALID,138.636,VALID,0,VALID,24.0643,VALID,323,VALID,0,
2015-01-10, 00:10:04,VALID,1010.26,VALID,0,INVALID,138.613,VALID,0,VALID,24.0837,VALID,323,VALID,0,
2015-01-10, 00:11:04,VALID,1010.26,VALID,0,INVALID,138.59,VALID,0,VALID,24.1032,VALID,323,VALID,0,
2015-01-10, 00:12:04,VALID,1010.26,VALID,0,INVALID,138.537,VALID,0,VALID,24.1032,VALID,323,VALID,0,
2015-01-10, 00:13:04,VALID,1010.23,VALID,0,INVALID,138.491,VALID,0,VALID,24.1032,VALID,323,VALID,0,
2015-01-10, 00:14:04,VALID,1010.21,VALID,0,INVALID,138.476,VALID,0,VALID,24.0837,VALID,323,VALID,0,
2015-01-10, 00:15:04,VALID,1010.19,VALID,0,INVALID,138.499,VALID,0,VALID,24.1051,VALID,323,VALID,0,
2015-01-10, 00:16:04,VALID,1010.17,VALID,0,INVALID,138.491,VALID,0,VALID,24.0643,VALID,323,VALID,0,
2015-01-10, 00:17:04,VALID,1010.15,VALID,0,INVALID,138.468,VALID,0,VALID,24.0643,VALID,323,VALID,0,
2015-01-10, 00:18:04,VALID,1010.17,VALID,0,INVALID,138.537,VALID,0,VALID,24.0448,VALID,323,VALID,0,
2015-01-10, 00:19:04,VALID,1010.14,VALID,0,INVALID,138.529,VALID,0,VALID,24.0253,VALID,323,VALID,0,
2015-01-10, 00:20:04,VALID,1010.15,VALID,0,INVALID,138.575,VALID,0,VALID,24.0058,VALID,323,VALID,0,
2015-01-10, 00:21:04,VALID,1010.14,VALID,0,INVALID,138.613,VALID,0,VALID,24.0058,VALID,323,VALID,0,
2015-01-10, 00:22:04,VALID,1010.12,VALID,0,INVALID,138.667,VALID,0,VALID,23.9863,VALID,323,VALID,0,
2015-01-10, 00:23:04,VALID,1010.11,VALID,0,INVALID,138.72,VALID,0,VALID,23.9863,VALID,323,VALID,0,
2015-01-10, 00:24:04,VALID,1010.11,VALID,0,INVALID,138.735,VALID,0,VALID,23.9668,VALID,323,VALID,0,
2015-01-10, 00:25:04,VALID,1010.09,VALID,0,INVALID,138.743,VALID,0,VALID,24.0076,VALID,323,VALID,0,
2015-01-10, 00:26:04,VALID,1010.07,VALID,0,INVALID,138.789,VALID,0,VALID,23.9863,VALID,323,VALID,0,
2015-01-10, 00:27:04,VALID,1010.04,VALID,0,INVALID,138.773,VALID,0,VALID,23.9863,VALID,323,VALID,0,
2015-01-10, 00:28:04,VALID,1010.02,VALID,0,INVALID,138.812,VALID,0,VALID,24.0058,VALID,323,VALID,0,
2015-01-10, 00:29:04,VALID,1010.01,VALID,0,INVALID,138.743,VALID,0,VALID,23.9863,VALID,323,VALID,0,
2015-01-10, 00:30:04,VALID,1010,VALID,0,INVALID,138.796,VALID,0,VALID,23.9668,VALID,323,VALID,0,
2015-01-10, 00:31:04,VALID,1009.99,VALID,0,INVALID,138.804,VALID,0,VALID,23.9668,VALID,323,VALID,0,
2015-01-10, 00:32:04,VALID,1010,VALID,0,INVALID,138.796,VALID,0,VALID,23.9455,VALID,323,VALID,0,
2015-01-10, 00:33:04,VALID,1010.02,VALID,0,INVALID,138.804,VALID,0,VALID,23.9668,VALID,323,VALID,0,
2015-01-10, 00:34:04,VALID,1010.01,VALID,0,INVALID,138.781,VALID,0,VALID,23.9473,VALID,323,VALID,0,
2015-01-10, 00:35:04,VALID,1010,VALID,0,INVALID,138.812,VALID,0,VALID,23.9278,VALID,323,VALID,0,
2015-01-10, 00:36:04,VALID,1010.02,VALID,0,INVALID,138.834,VALID,0.112112,VALID,23.9278,VALID,323,VALID,0,
2015-01-10, 00:37:04,VALID,1009.99,VALID,0,INVALID,138.827,VALID,0.112112,VALID,23.9278,VALID,323,VALID,0,
2015-01-10, 00:38:04,VALID,1010,VALID,0,INVALID,138.812,VALID,0,VALID,23.9278,VALID,323,VALID,0,
2015-01-10, 00:39:04,VALID,1010,VALID,0,INVALID,138.85,VALID,0,VALID,23.9278,VALID,323,VALID,0,
2015-01-10, 00:40:04,VALID,1009.96,VALID,0,INVALID,138.865,VALID,0,VALID,23.9278,VALID,323,VALID,0,
2015-01-10, 00:41:04,VALID,1009.92,VALID,0,INVALID,138.842,VALID,0,VALID,23.9278,VALID,323,VALID,0,
2015-01-10, 00:42:04,VALID,1009.94,VALID,0,INVALID,138.812,VALID,0,VALID,23.9278,VALID,323,VALID,0,
2015-01-10, 00:43:04,VALID,1009.91,VALID,0,INVALID,138.804,VALID,0,VALID,23.9278,VALID,323,VALID,0,
2015-01-10, 00:44:04,VALID,1009.89,VALID,0,INVALID,138.796,VALID,0,VALID,23.9278,VALID,323,VALID,0,
2015-01-10, 00:45:04,VALID,1009.9,VALID,0,INVALID,138.781,VALID,0,VALID,23.9084,VALID,323,VALID,0,
2015-01-10, 00:46:04,VALID,1009.9,VALID,0,INVALID,138.796,VALID,0,VALID,23.9084,VALID,323,VALID,0,
2015-01-10, 00:47:04,VALID,1009.87,VALID,0,INVALID,138.781,VALID,0.112112,VALID,23.8889,VALID,323,VALID,0,
2015-01-10, 00:48:04,VALID,1009.86,VALID,0,INVALID,138.804,VALID,0.112112,VALID,23.8889,VALID,323,VALID,0,
2015-01-10, 00:49:04,VALID,1009.86,VALID,0,INVALID,138.781,VALID,0,VALID,23.8694,VALID,323,VALID,0,
2015-01-10, 00:50:04,VALID,1009.82,VALID,0,INVALID,138.781,VALID,0,VALID,23.8694,VALID,323,VALID,0,
2015-01-10, 00:51:04,VALID,1009.82,VALID,0,INVALID,138.758,VALID,0,VALID,23.8694,VALID,323,VALID,0,
2015-01-10, 00:52:04,VALID,1009.8,VALID,0,INVALID,138.766,VALID,0,VALID,23.8694,VALID,323,VALID,0,
2015-01-10, 00:53:04,VALID,1009.81,VALID,0,INVALID,138.781,VALID,0,VALID,23.8499,VALID,323,VALID,0,
2015-01-10, 00:54:04,VALID,1009.8,VALID,0,INVALID,138.743,VALID,0,VALID,23.8694,VALID,323,VALID,0,
2015-01-10, 00:55:04,VALID,1009.79,VALID,0,INVALID,138.743,VALID,0,VALID,23.8499,VALID,323,VALID,0,
2015-01-10, 00:56:04,VALID,1009.81,VALID,0,INVALID,138.781,VALID,0,VALID,23.8499,VALID,323,VALID,0,
2015-01-10, 00:57:04,VALID,1009.78,VALID,0,INVALID,138.728,VALID,0,VALID,23.8304,VALID,323,VALID,0,
2015-01-10, 00:58:04,VALID,1009.79,VALID,0,INVALID,138.728,VALID,0,VALID,23.8304,VALID,323,VALID,0,
2015-01-10, 00:59:04,VALID,1009.79,VALID,0,INVALID,138.728,VALID,0,VALID,23.8109,VALID,323,VALID,0,
2015-01-10, 01:00:04,VALID,1009.76,VALID,0,INVALID,138.705,VALID,0,VALID,23.7914,VALID,323,VALID,0,
2015-01-10, 01:01:04,VALID,1009.74,VALID,0,INVALID,138.712,VALID,0,VALID,23.8109,VALID,323,VALID,0,
2015-01-10, 01:02:04,VALID,1009.71,VALID,0,INVALID,138.69,VALID,0,VALID,23.7914,VALID,323,VALID,0,
2015-01-10, 01:03:04,VALID,1009.71,VALID,0,INVALID,138.69,VALID,0,VALID,23.7914,VALID,323,VALID,0,
2015-01-10, 01:04:04,VALID,1009.67,VALID,0,INVALID,138.712,VALID,0,VALID,23.772,VALID,323,VALID,0,
2015-01-10, 01:05:04,VALID,1009.66,VALID,0,INVALID,138.705,VALID,0,VALID,23.772,VALID,323,VALID,0,
2015-01-10, 01:06:04,VALID,1009.62,VALID,0,INVALID,138.705,VALID,0,VALID,23.7525,VALID,323,VALID,0,
2015-01-10, 01:07:04,VALID,1009.57,VALID,0,INVALID,138.682,VALID,0,VALID,23.772,VALID,323,VALID,0,
2015-01-10, 01:08:04,VALID,1009.56,VALID,0,INVALID,138.682,VALID,0,VALID,23.7525,VALID,323,VALID,0,
2015-01-10, 01:09:04,VALID,1009.53,VALID,0,INVALID,138.659,VALID,0,VALID,23.7525,VALID,323,VALID,0,
2015-01-10, 01:10:04,VALID,1009.57,VALID,0,INVALID,138.651,VALID,0,VALID,23.7312,VALID,323,VALID,0,
2015-01-10, 01:11:04,VALID,1009.55,VALID,0,INVALID,138.613,VALID,0,VALID,23.733,VALID,323,VALID,0,
2015-01-10, 01:12:04,VALID,1009.54,VALID,0,INVALID,138.606,VALID,0,VALID,23.733,VALID,323,VALID,0,
2015-01-10, 01:13:04,VALID,1009.55,VALID,0,INVALID,138.59,VALID,0,VALID,23.7525,VALID,323,VALID,0,
2015-01-10, 01:14:04,VALID,1009.52,VALID,0,INVALID,138.56,VALID,0,VALID,23.733,VALID,323,VALID,0,
2015-01-10, 01:15:04,VALID,1009.49,VALID,0,INVALID,138.529,VALID,0,VALID,23.733,VALID,323,VALID,0,
2015-01-10, 01:16:04,VALID,1009.51,VALID,0,INVALID,138.507,VALID,0,VALID,23.6922,VALID,323,VALID,0,
2015-01-10, 01:17:04,VALID,1009.5,VALID,0,INVALID,138.476,VALID,0,VALID,23.694,VALID,323,VALID,0,
2015-01-10, 01:18:04,VALID,1009.51,VALID,0,INVALID,138.43,VALID,0,VALID,23.7135,VALID,323,VALID,0,
2015-01-10, 01:19:04,VALID,1009.55,VALID,0,INVALID,138.377,VALID,0,VALID,23.7135,VALID,323,VALID,0,
2015-01-10, 01:20:04,VALID,1009.53,VALID,0,INVALID,138.362,VALID,0,VALID,23.7135,VALID,323,VALID,0,
2015-01-10, 01:21:04,VALID,1009.49,VALID,0,INVALID,138.308,VALID,0,VALID,23.7117,VALID,323,VALID,0,
2015-01-10, 01:22:04,VALID,1009.49,VALID,0,INVALID,138.293,VALID,0,VALID,23.733,VALID,323,VALID,0,
2015-01-10, 01:23:04,VALID,1009.52,VALID,0,INVALID,138.194,VALID,0,VALID,23.7135,VALID,323,VALID,0,
2015-01-10, 01:24:04,VALID,1009.5,VALID,0,INVALID,138.148,VALID,0,VALID,23.7135,VALID,323,VALID,0,
2015-01-10, 01:25:04,VALID,1009.5,VALID,0,INVALID,138.08,VALID,0.112112,VALID,23.7117,VALID,323,VALID,0,
2015-01-10, 01:26:04,VALID,1009.48,VALID,0,INVALID,138.011,VALID,0,VALID,23.733,VALID,323,VALID,0,
2015-01-10, 01:27:04,VALID,1009.48,VALID,0,INVALID,137.935,VALID,0,VALID,23.7525,VALID,323,VALID,0,
2015-01-10, 01:28:04,VALID,1009.5,VALID,0,INVALID,137.889,VALID,0,VALID,23.772,VALID,323,VALID,0,
2015-01-10, 01:29:04,VALID,1009.5,VALID,0,INVALID,137.82,VALID,0,VALID,23.772,VALID,323,VALID,0,
2015-01-10, 01:30:04,VALID,1009.5,VALID,0,INVALID,137.767,VALID,0,VALID,23.7738,VALID,323,VALID,0,
2015-01-10, 01:31:04,VALID,1009.52,VALID,0,INVALID,137.683,VALID,0,VALID,23.7914,VALID,323,VALID,0,
2015-01-10, 01:32:04,VALID,1009.51,VALID,0,INVALID,137.622,VALID,0,VALID,23.7914,VALID,323,VALID,0,
2015-01-10, 01:33:04,VALID,1009.48,VALID,0,INVALID,137.538,VALID,0,VALID,23.7914,VALID,323,VALID,0,
2015-01-10, 01:34:04,VALID,1009.47,VALID,0,INVALID,137.538,VALID,0,VALID,23.772,VALID,323,VALID,0,
2015-01-10, 01:35:04,VALID,1009.45,VALID,0,INVALID,137.469,VALID,0,VALID,23.772,VALID,323,VALID,0,
2015-01-10, 01:36:04,VALID,1009.45,VALID,0,INVALID,137.401,VALID,0,VALID,23.7914,VALID,323,VALID,0,
2015-01-10, 01:37:04,VALID,1009.41,VALID,0,INVALID,137.355,VALID,0,VALID,23.7914,VALID,323,VALID,0,
2015-01-10, 01:38:04,VALID,1009.39,VALID,0,INVALID,137.347,VALID,0,VALID,23.7914,VALID,323,VALID,0,
2015-01-10, 01:39:04,VALID,1009.37,VALID,0,INVALID,137.309,VALID,0,VALID,23.8109,VALID,323,VALID,0,
2015-01-10, 01:40:04,VALID,1009.39,VALID,0,INVALID,137.286,VALID,0,VALID,23.7914,VALID,323,VALID,0,
2015-01-10, 01:41:04,VALID,1009.4,VALID,0,INVALID,137.279,VALID,0,VALID,23.772,VALID,323,VALID,0,
2015-01-10, 01:42:04,VALID,1009.41,VALID,0,INVALID,137.248,VALID,0,VALID,23.772,VALID,323,VALID,0,
2015-01-10, 01:43:04,VALID,1009.4,VALID,0,INVALID,137.225,VALID,0,VALID,23.772,VALID,323,VALID,0,
2015-01-10, 01:44:04,VALID,1009.38,VALID,0,INVALID,137.248,VALID,0,VALID,23.7525,VALID,323,VALID,0,
2015-01-10, 01:45:04,VALID,1009.36,VALID,0,INVALID,137.233,VALID,0,VALID,23.7525,VALID,323,VALID,0,
2015-01-10, 01:46:04,VALID,1009.36,VALID,0,INVALID,137.225,VALID,0,VALID,23.7525,VALID,323,VALID,0,
2015-01-10, 01:47:04,VALID,1009.35,VALID,0,INVALID,137.241,VALID,0,VALID,23.733,VALID,323,VALID,0,
2015-01-10, 01:48:04,VALID,1009.36,VALID,0,INVALID,137.187,VALID,0,VALID,23.733,VALID,323,VALID,0,
2015-01-10, 01:49:04,VALID,1009.33,VALID,0,INVALID,137.149,VALID,0,VALID,23.7525,VALID,323,VALID,0,
2015-01-10, 01:50:04,VALID,1009.33,VALID,0,INVALID,137.164,VALID,0,VALID,23.733,VALID,323,VALID,0,
2015-01-10, 01:51:04,VALID,1009.31,VALID,0,INVALID,137.096,VALID,0,VALID,23.733,VALID,323,VALID,0,
2015-01-10, 01:52:04,VALID,1009.25,VALID,0,INVALID,137.088,VALID,0,VALID,23.7135,VALID,323,VALID,0,
2015-01-10, 01:53:04,VALID,1009.28,VALID,0,INVALID,137.111,VALID,0,VALID,23.7117,VALID,323,VALID,0,
2015-01-10, 01:54:04,VALID,1009.27,VALID,0,INVALID,137.073,VALID,0,VALID,23.7135,VALID,323,VALID,0,
2015-01-10, 01:55:04,VALID,1009.28,VALID,0,INVALID,137.02,VALID,0,VALID,23.694,VALID,323,VALID,0,
2015-01-10, 01:56:04,VALID,1009.24,VALID,0,INVALID,137.02,VALID,0,VALID,23.694,VALID,323,VALID,0,
2015-01-10, 01:57:04,VALID,1009.24,VALID,0,INVALID,137.004,VALID,0,VALID,23.694,VALID,323,VALID,0,
2015-01-10, 01:58:04,VALID,1009.24,VALID,0,INVALID,136.989,VALID,0,VALID,23.6745,VALID,323,VALID,0,
2015-01-10, 01:59:04,VALID,1009.25,VALID,0,INVALID,136.974,VALID,0,VALID,23.6745,VALID,323,VALID,0,
2015-01-10, 02:00:04,VALID,1009.27,VALID,0,INVALID,136.974,VALID,0,VALID,23.6745,VALID,323,VALID,0,
2015-01-10, 02:01:04,VALID,1009.21,VALID,0,INVALID,136.898,VALID,0,VALID,23.6745,VALID,323,VALID,0,
2015-01-10, 02:02:04,VALID,1009.22,VALID,0,INVALID,136.867,VALID,0,VALID,23.6745,VALID,323,VALID,0,
2015-01-10, 02:03:04,VALID,1009.2,VALID,0,INVALID,136.898,VALID,0,VALID,23.655,VALID,323,VALID,0,
2015-01-10, 02:04:04,VALID,1009.19,VALID,0,INVALID,136.928,VALID,0,VALID,23.655,VALID,323,VALID,0,
2015-01-10, 02:05:04,VALID,1009.21,VALID,0,INVALID,136.875,VALID,0,VALID,23.6356,VALID,323,VALID,0,
2015-01-10, 02:06:04,VALID,1009.19,VALID,0,INVALID,136.852,VALID,0,VALID,23.5948,VALID,323,VALID,0,
2015-01-10, 02:07:04,VALID,1009.18,VALID,0,INVALID,136.89,VALID,0,VALID,23.6161,VALID,323,VALID,0,
2015-01-10, 02:08:04,VALID,1009.16,VALID,0,INVALID,136.859,VALID,0,VALID,23.5753,VALID,323,VALID,0,
2015-01-10, 02:09:04,VALID,1009.15,VALID,0,INVALID,136.905,VALID,0,VALID,23.5771,VALID,323,VALID,0,
2015-01-10, 02:10:04,VALID,1009.15,VALID,0,INVALID,136.928,VALID,0,VALID,23.5771,VALID,323,VALID,0,
2015-01-10, 02:11:04,VALID,1009.16,VALID,0,INVALID,136.936,VALID,0,VALID,23.5771,VALID,323,VALID,0,
2015-01-10, 02:12:04,VALID,1009.17,VALID,0,INVALID,136.981,VALID,0,VALID,23.5576,VALID,323,VALID,0,
2015-01-10, 02:13:04,VALID,1009.12,VALID,0,INVALID,136.936,VALID,0,VALID,23.5576,VALID,323,VALID,0,
2015-01-10, 02:14:04,VALID,1009.17,VALID,0,INVALID,136.92,VALID,0,VALID,23.5576,VALID,323,VALID,0,
2015-01-10, 02:15:04,VALID,1009.11,VALID,0,INVALID,136.905,VALID,0,VALID,23.5576,VALID,323,VALID,0,
2015-01-10, 02:16:04,VALID,1009.13,VALID,0,INVALID,136.905,VALID,0,VALID,23.5576,VALID,323,VALID,0,
2015-01-10, 02:17:04,VALID,1009.14,VALID,0,INVALID,136.875,VALID,0,VALID,23.5576,VALID,323,VALID,0,
2015-01-10, 02:18:04,VALID,1009.11,VALID,0,INVALID,136.837,VALID,0,VALID,23.5771,VALID,323,VALID,0,
2015-01-10, 02:19:04,VALID,1009.1,VALID,0,INVALID,136.753,VALID,0,VALID,23.5558,VALID,323,VALID,0,
2015-01-10, 02:20:04,VALID,1009.09,VALID,0,INVALID,136.715,VALID,0,VALID,23.5771,VALID,323,VALID,0,
2015-01-10, 02:21:04,VALID,1009.08,VALID,0,INVALID,136.623,VALID,0,VALID,23.5966,VALID,323,VALID,0,
2015-01-10, 02:22:04,VALID,1009.05,VALID,0,INVALID,136.531,VALID,0,VALID,23.6161,VALID,323,VALID,0,
2015-01-10, 02:23:04,VALID,1009.01,VALID,0,INVALID,136.486,VALID,0,VALID,23.6373,VALID,323,VALID,0,
2015-01-10, 02:24:04,VALID,1009,VALID,0,INVALID,136.409,VALID,0,VALID,23.6161,VALID,323,VALID,0,
2015-01-10, 02:25:04,VALID,1009.01,VALID,0,INVALID,136.303,VALID,0,VALID,23.6356,VALID,323,VALID,0,
2015-01-10, 02:26:04,VALID,1008.99,VALID,0,INVALID,136.257,VALID,0,VALID,23.6161,VALID,323,VALID,0,
2015-01-10, 02:27:04,VALID,1009,VALID,0,INVALID,136.196,VALID,0,VALID,23.6356,VALID,323,VALID,0,
2015-01-10, 02:28:04,VALID,1008.97,VALID,0,INVALID,136.204,VALID,0,VALID,23.6161,VALID,323,VALID,0,
2015-01-10, 02:29:04,VALID,1009.02,VALID,0,INVALID,136.112,VALID,0,VALID,23.6161,VALID,323,VALID,0,
2015-01-10, 02:30:04,VALID,1008.98,VALID,0,INVALID,136.097,VALID,0,VALID,23.5966,VALID,323,VALID,0,
2015-01-10, 02:31:04,VALID,1008.96,VALID,0,INVALID,136.021,VALID,0,VALID,23.5966,VALID,323,VALID,0,
2015-01-10, 02:32:04,VALID,1008.97,VALID,0,INVALID,136.021,VALID,0,VALID,23.5966,VALID,323,VALID,0,
2015-01-10, 02:33:04,VALID,1008.97,VALID,0,INVALID,136.013,VALID,0,VALID,23.5771,VALID,323,VALID,0,
2015-01-10, 02:34:04,VALID,1008.95,VALID,0,INVALID,136.013,VALID,0.112112,VALID,23.5771,VALID,323,VALID,0,
2015-01-10, 02:35:04,VALID,1008.99,VALID,0,INVALID,135.982,VALID,0.112112,VALID,23.5576,VALID,323,VALID,0,
2015-01-10, 02:36:04,VALID,1008.95,VALID,0,INVALID,135.952,VALID,0.112112,VALID,23.5576,VALID,323,VALID,0,
2015-01-10, 02:37:04,VALID,1008.94,VALID,0,INVALID,135.921,VALID,0,VALID,23.5576,VALID,323,VALID,0,
2015-01-10, 02:38:04,VALID,1008.92,VALID,0,INVALID,135.929,VALID,0.112112,VALID,23.5576,VALID,323,VALID,0,
2015-01-10, 02:39:04,VALID,1008.96,VALID,0,INVALID,135.899,VALID,0,VALID,23.5381,VALID,323,VALID,0,
2015-01-10, 02:40:04,VALID,1008.94,VALID,0,INVALID,135.853,VALID,0,VALID,23.5363,VALID,323,VALID,0,
2015-01-10, 02:41:04,VALID,1008.88,VALID,0,INVALID,135.899,VALID,0,VALID,23.5186,VALID,323,VALID,0,
2015-01-10, 02:42:04,VALID,1008.92,VALID,0,INVALID,135.883,VALID,0.112112,VALID,23.5186,VALID,323,VALID,0,
2015-01-10, 02:43:04,VALID,1008.88,VALID,0,INVALID,135.845,VALID,0.112112,VALID,23.4974,VALID,323,VALID,0,
2015-01-10, 02:44:04,VALID,1008.88,VALID,0,INVALID,135.822,VALID,0.112112,VALID,23.5186,VALID,323,VALID,0,
2015-01-10, 02:45:04,VALID,1008.9,VALID,0,INVALID,135.845,VALID,0.112112,VALID,23.4992,VALID,323,VALID,0,
2015-01-10, 02:46:04,VALID,1008.87,VALID,0,INVALID,135.845,VALID,0.112112,VALID,23.4797,VALID,323,VALID,0,
2015-01-10, 02:47:04,VALID,1008.85,VALID,0,INVALID,135.86,VALID,0.112112,VALID,23.4797,VALID,323,VALID,0,
2015-01-10, 02:48:04,VALID,1008.86,VALID,0,INVALID,135.815,VALID,0.112112,VALID,23.4602,VALID,323,VALID,0,
2015-01-10, 02:49:04,VALID,1008.88,VALID,0,INVALID,135.799,VALID,0,VALID,23.4797,VALID,323,VALID,0,
2015-01-10, 02:50:04,VALID,1008.9,VALID,0,INVALID,135.738,VALID,0.112112,VALID,23.4797,VALID,323,VALID,0,
2015-01-10, 02:51:04,VALID,1008.89,VALID,0,INVALID,135.7,VALID,0.112112,VALID,23.4797,VALID,323,VALID,0,
2015-01-10, 02:52:04,VALID,1008.89,VALID,0,INVALID,135.708,VALID,0.112112,VALID,23.4797,VALID,323,VALID,0,
2015-01-10, 02:53:04,VALID,1008.9,VALID,0,INVALID,135.655,VALID,0,VALID,23.4797,VALID,323,VALID,0,
2015-01-10, 02:54:04,VALID,1008.85,VALID,0,INVALID,135.639,VALID,0.112112,VALID,23.4602,VALID,323,VALID,0,
2015-01-10, 02:55:04,VALID,1008.87,VALID,0,INVALID,135.639,VALID,0.112112,VALID,23.4602,VALID,323,VALID,0,
2015-01-10, 02:56:04,VALID,1008.85,VALID,0,INVALID,135.632,VALID,0,VALID,23.4407,VALID,323,VALID,0,
2015-01-10, 02:57:04,VALID,1008.85,VALID,0,INVALID,135.616,VALID,0,VALID,23.4602,VALID,323,VALID,0,
2015-01-10, 02:58:04,VALID,1008.85,VALID,0,INVALID,135.571,VALID,0.112112,VALID,23.4407,VALID,323,VALID,0,
2015-01-10, 02:59:04,VALID,1008.84,VALID,0,INVALID,135.586,VALID,0,VALID,23.4407,VALID,323,VALID,0,
2015-01-10, 03:00:04,VALID,1008.83,VALID,0,INVALID,135.51,VALID,0,VALID,23.4407,VALID,323,VALID,0,
2015-01-10, 03:01:04,VALID,1008.86,VALID,0,INVALID,135.533,VALID,0,VALID,23.4407,VALID,323,VALID,0,
2015-01-10, 03:02:04,VALID,1008.88,VALID,0,INVALID,135.517,VALID,0,VALID,23.4602,VALID,323,VALID,0,
2015-01-10, 03:03:04,VALID,1008.85,VALID,0,INVALID,135.502,VALID,0,VALID,23.4407,VALID,323,VALID,0,
2015-01-10, 03:04:04,VALID,1008.88,VALID,0,INVALID,135.433,VALID,0.112112,VALID,23.4602,VALID,323,VALID,0,
2015-01-10, 03:05:04,VALID,1008.84,VALID,0,INVALID,135.472,VALID,0,VALID,23.4407,VALID,323,VALID,0,
2015-01-10, 03:06:04,VALID,1008.85,VALID,0,INVALID,135.395,VALID,0,VALID,23.4602,VALID,323,VALID,0,
2015-01-10, 03:07:04,VALID,1008.84,VALID,0,INVALID,135.296,VALID,0.112112,VALID,23.4797,VALID,323,VALID,0,
2015-01-10, 03:08:04,VALID,1008.82,VALID,0,INVALID,135.304,VALID,0,VALID,23.4602,VALID,323,VALID,0,
2015-01-10, 03:09:04,VALID,1008.82,VALID,0,INVALID,135.258,VALID,0,VALID,23.4602,VALID,323,VALID,0,
2015-01-10, 03:10:04,VALID,1008.83,VALID,0,INVALID,135.304,VALID,0,VALID,23.4407,VALID,323,VALID,0,
2015-01-10, 03:11:04,VALID,1008.83,VALID,0,INVALID,135.266,VALID,0,VALID,23.4407,VALID,323,VALID,0,
2015-01-10, 03:12:04,VALID,1008.83,VALID,0,INVALID,135.22,VALID,0,VALID,23.4212,VALID,323,VALID,0,
2015-01-10, 03:13:04,VALID,1008.84,VALID,0,INVALID,135.197,VALID,0,VALID,23.4407,VALID,323,VALID,0,
2015-01-10, 03:14:04,VALID,1008.86,VALID,0,INVALID,135.189,VALID,0.112112,VALID,23.4,VALID,323,VALID,0,
2015-01-10, 03:15:04,VALID,1008.86,VALID,0,INVALID,135.212,VALID,0.112112,VALID,23.4212,VALID,323,VALID,0,
2015-01-10, 03:16:04,VALID,1008.85,VALID,0,INVALID,135.235,VALID,0,VALID,23.4212,VALID,323,VALID,0,
2015-01-10, 03:17:04,VALID,1008.89,VALID,0,INVALID,135.22,VALID,0.112112,VALID,23.3805,VALID,323,VALID,0,
2015-01-10, 03:18:04,VALID,1008.89,VALID,0,INVALID,135.243,VALID,0.112112,VALID,23.3823,VALID,323,VALID,0,
2015-01-10, 03:19:04,VALID,1008.91,VALID,0,INVALID,135.273,VALID,0.112112,VALID,23.3823,VALID,323,VALID,0,
2015-01-10, 03:20:04,VALID,1008.95,VALID,0,INVALID,135.311,VALID,0,VALID,23.3628,VALID,323,VALID,0,
2015-01-10, 03:21:04,VALID,1008.93,VALID,0,INVALID,135.304,VALID,0.112112,VALID,23.3628,VALID,323,VALID,0,
2015-01-10, 03:22:04,VALID,1008.96,VALID,0,INVALID,135.319,VALID,0,VALID,23.3628,VALID,323,VALID,0,
2015-01-10, 03:23:04,VALID,1008.94,VALID,0,INVALID,135.311,VALID,0,VALID,23.3628,VALID,323,VALID,0,
2015-01-10, 03:24:04,VALID,1008.97,VALID,0,INVALID,135.35,VALID,0,VALID,23.3433,VALID,323,VALID,0,
2015-01-10, 03:25:04,VALID,1008.98,VALID,0,INVALID,135.365,VALID,0,VALID,23.3433,VALID,323,VALID,0,
2015-01-10, 03:26:04,VALID,1008.91,VALID,0,INVALID,135.319,VALID,0,VALID,23.3433,VALID,323,VALID,0,
2015-01-10, 03:27:04,VALID,1008.91,VALID,0,INVALID,135.342,VALID,0,VALID,23.3433,VALID,323,VALID,0,
2015-01-10, 03:28:04,VALID,1008.91,VALID,0,INVALID,135.365,VALID,0.112112,VALID,23.3238,VALID,323,VALID,0,
2015-01-10, 03:29:04,VALID,1008.91,VALID,0,INVALID,135.365,VALID,0,VALID,23.2831,VALID,323,VALID,0,
2015-01-10, 03:30:04,VALID,1008.87,VALID,0,INVALID,135.418,VALID,0,VALID,23.3043,VALID,323,VALID,0,
2015-01-10, 03:31:04,VALID,1008.88,VALID,0,INVALID,135.426,VALID,0,VALID,23.3061,VALID,323,VALID,0,
2015-01-10, 03:32:04,VALID,1008.87,VALID,0,INVALID,135.433,VALID,0,VALID,23.2848,VALID,323,VALID,0,
2015-01-10, 03:33:04,VALID,1008.88,VALID,0,INVALID,135.411,VALID,0,VALID,23.3043,VALID,323,VALID,0,
2015-01-10, 03:34:04,VALID,1008.91,VALID,0,INVALID,135.426,VALID,0,VALID,23.2848,VALID,323,VALID,0,
2015-01-10, 03:35:04,VALID,1008.92,VALID,0,INVALID,135.441,VALID,0,VALID,23.2654,VALID,323,VALID,0,
2015-01-10, 03:36:04,VALID,1008.89,VALID,0,INVALID,135.464,VALID,0.112112,VALID,23.2654,VALID,323,VALID,0,
2015-01-10, 03:37:04,VALID,1008.92,VALID,0,INVALID,135.525,VALID,0,VALID,23.2459,VALID,323,VALID,0,
2015-01-10, 03:38:04,VALID,1008.89,VALID,0,INVALID,135.571,VALID,0.112112,VALID,23.2459,VALID,323,VALID,0,
2015-01-10, 03:39:04,VALID,1008.9,VALID,0,INVALID,135.601,VALID,0,VALID,23.2459,VALID,323,VALID,0,
2015-01-10, 03:40:04,VALID,1008.92,VALID,0,INVALID,135.616,VALID,0,VALID,23.2459,VALID,323,VALID,0,
2015-01-10, 03:41:04,VALID,1008.91,VALID,0,INVALID,135.601,VALID,0,VALID,23.2671,VALID,323,VALID,0,
2015-01-10, 03:42:04,VALID,1008.91,VALID,0,INVALID,135.662,VALID,0,VALID,23.2671,VALID,323,VALID,0,
2015-01-10, 03:43:04,VALID,1008.92,VALID,0,INVALID,135.609,VALID,0,VALID,23.2459,VALID,323,VALID,0,
2015-01-10, 03:44:04,VALID,1008.91,VALID,0,INVALID,135.601,VALID,0,VALID,23.2459,VALID,323,VALID,0,
2015-01-10, 03:45:04,VALID,1008.87,VALID,0,INVALID,135.616,VALID,0.112112,VALID,23.2459,VALID,323,VALID,0,
2015-01-10, 03:46:04,VALID,1008.88,VALID,0,INVALID,135.647,VALID,0.112112,VALID,23.2264,VALID,323,VALID,0,
2015-01-10, 03:47:04,VALID,1008.87,VALID,0,INVALID,135.616,VALID,0,VALID,23.2264,VALID,323,VALID,0,
2015-01-10, 03:48:04,VALID,1008.87,VALID,0,INVALID,135.578,VALID,0.112112,VALID,23.2264,VALID,323,VALID,0,
2015-01-10, 03:49:04,VALID,1008.9,VALID,0,INVALID,135.487,VALID,0,VALID,23.2459,VALID,323,VALID,0,
2015-01-10, 03:50:04,VALID,1008.86,VALID,0,INVALID,135.464,VALID,0,VALID,23.2459,VALID,323,VALID,0,
2015-01-10, 03:51:04,VALID,1008.89,VALID,0,INVALID,135.479,VALID,0.112112,VALID,23.2459,VALID,323,VALID,0,
2015-01-10, 03:52:04,VALID,1008.89,VALID,0,INVALID,135.342,VALID,0.112112,VALID,23.2654,VALID,323,VALID,0,